When you browse on this site, cookies collect data to enhance your experience and personalize the content and advertising you see.
Visit our Privacy Policy to learn more. By continuing to use the site, you agree to this use of cookies and data.
  • Em Portugal
  • Lista de países
  • Para 7 dias
  • Temperatura da água
  • Mapas de satélite
  • Mapa do tempo
  • Widgets de tempo
  • user-avatar
    Iniciar Sessão

    Previsão horária em Mogilevo

    Hoje, 25 Maio, Sábado

    Tempo Temperatura Precipitação Vento Pressão Humidade
    00:00 +16°C° 0.2 mm 2 m/s 741 mmHg 90%
    01:00 +16°C° 0.2 mm 2 m/s 741 mmHg 91%
    02:00 +16°C° 0.2 mm 2 m/s 741 mmHg 93%
    03:00 +16°C° 0.1 mm 2 m/s 741 mmHg 93%
    04:00 +16°C° 0.1 mm 1 m/s 741 mmHg 93%
    05:00 +16°C° 0.1 mm 1 m/s 741 mmHg 94%
    06:00 +18°C° 0 mm 1 m/s 741 mmHg 89%
    07:00 +19°C° 0 mm 1 m/s 741 mmHg 85%
    08:00 +20°C° 0 mm 2 m/s 741 mmHg 80%
    09:00 +21°C° 0.2 mm 2 m/s 741 mmHg 72%
    10:00 +24°C° 0.2 mm 2 m/s 741 mmHg 64%
    11:00 +25°C° 0.2 mm 3 m/s 741 mmHg 56%
    12:00 +25°C° 0.8 mm 3 m/s 741 mmHg 58%
    13:00 +25°C° 0.8 mm 3 m/s 741 mmHg 60%
    14:00 +24°C° 0.8 mm 3 m/s 741 mmHg 62%
    15:00 +24°C° 0.3 mm 3 m/s 740 mmHg 64%
    16:00 +24°C° 0.3 mm 3 m/s 740 mmHg 66%
    17:00 +22°C° 0.3 mm 3 m/s 740 mmHg 67%
    18:00 +21°C° 0.8 mm 3 m/s 740 mmHg 74%
    19:00 +19°C° 0.8 mm 2 m/s 740 mmHg 80%
    20:00 +17°C° 0.8 mm 2 m/s 740 mmHg 86%
    21:00 +16°C° 0 mm 2 m/s 740 mmHg 87%
    22:00 +15°C° 0 mm 2 m/s 740 mmHg 89%
    23:00 +13°C° 0 mm 3 m/s 741 mmHg 90%

    Amanhã, 26 Maio, Domingo

    Tempo Temperatura Precipitação Vento Pressão Humidade
    00:00 +14°C° 0 mm 2 m/s 741 mmHg 91%
    01:00 +13°C° 0 mm 2 m/s 741 mmHg 93%
    02:00 +13°C° 0 mm 2 m/s 741 mmHg 94%
    03:00 +12°C° 0 mm 2 m/s 742 mmHg 94%
    04:00 +12°C° 0 mm 2 m/s 742 mmHg 93%
    05:00 +12°C° 0 mm 2 m/s 742 mmHg 93%
    06:00 +12°C° 0 mm 3 m/s 742 mmHg 87%
    07:00 +14°C° 0 mm 3 m/s 742 mmHg 80%
    08:00 +16°C° 0 mm 3 m/s 742 mmHg 73%
    09:00 +17°C° 0 mm 3 m/s 742 mmHg 65%
    10:00 +18°C° 0 mm 4 m/s 742 mmHg 57%
    11:00 +19°C° 0 mm 4 m/s 743 mmHg 50%
    12:00 +20°C° 0 mm 5 m/s 742 mmHg 49%
    13:00 +20°C° 0 mm 5 m/s 742 mmHg 47%
    14:00 +21°C° 0 mm 6 m/s 742 mmHg 46%
    15:00 +20°C° 0 mm 5 m/s 742 mmHg 49%
    16:00 +20°C° 0 mm 5 m/s 742 mmHg 52%
    17:00 +20°C° 0 mm 5 m/s 742 mmHg 55%
    18:00 +18°C° 0 mm 4 m/s 742 mmHg 61%
    19:00 +17°C° 0 mm 3 m/s 742 mmHg 67%
    20:00 +16°C° 0 mm 3 m/s 742 mmHg 73%
    21:00 +14°C° 0 mm 3 m/s 742 mmHg 76%
    22:00 +13°C° 0 mm 3 m/s 743 mmHg 78%
    23:00 +12°C° 0 mm 3 m/s 743 mmHg 81%

    Depois de amanhã, 27 Maio, Segunda-feira

    Tempo Temperatura Precipitação Vento Pressão Humidade
    00:00 +12°C° 0 mm 3 m/s 743 mmHg 84%
    01:00 +12°C° 0 mm 2 m/s 743 mmHg 87%
    02:00 +10°C° 0 mm 2 m/s 743 mmHg 90%
    03:00 +12°C° 0 mm 2 m/s 744 mmHg 90%
    04:00 +12°C° 0 mm 2 m/s 744 mmHg 90%
    05:00 +12°C° 0 mm 2 m/s 744 mmHg 89%
    06:00 +13°C° 0 mm 3 m/s 744 mmHg 81%
    07:00 +15°C° 0 mm 4 m/s 744 mmHg 73%
    08:00 +18°C° 0 mm 4 m/s 745 mmHg 65%
    09:00 +19°C° 0 mm 5 m/s 745 mmHg 61%
    10:00 +20°C° 0 mm 5 m/s 745 mmHg 57%
    11:00 +22°C° 0 mm 5 m/s 745 mmHg 53%
    12:00 +22°C° 0 mm 5 m/s 745 mmHg 52%
    13:00 +23°C° 0 mm 5 m/s 745 mmHg 51%
    14:00 +25°C° 0 mm 5 m/s 745 mmHg 50%
    15:00 +25°C° 0.1 mm 5 m/s 745 mmHg 51%
    16:00 +25°C° 0.1 mm 4 m/s 744 mmHg 53%
    17:00 +25°C° 0.1 mm 4 m/s 744 mmHg 55%
    18:00 +22°C° 0 mm 3 m/s 744 mmHg 61%
    19:00 +20°C° 0 mm 3 m/s 744 mmHg 68%
    20:00 +19°C° 0 mm 2 m/s 744 mmHg 74%
    21:00 +18°C° 0 mm 2 m/s 744 mmHg 78%
    22:00 +17°C° 0 mm 2 m/s 744 mmHg 81%
    23:00 +17°C° 0 mm 2 m/s 745 mmHg 84%

    28 Maio, Terça-feira

    Tempo Temperatura Precipitação Vento Pressão Humidade
    00:00 +17°C° 0 mm 2 m/s 745 mmHg 86%
    01:00 +17°C° 0 mm 2 m/s 745 mmHg 88%
    02:00 +17°C° 0 mm 2 m/s 745 mmHg 91%
    03:00 +17°C° 0 mm 2 m/s 745 mmHg 91%
    04:00 +17°C° 0 mm 2 m/s 745 mmHg 92%
    05:00 +17°C° 0 mm 3 m/s 745 mmHg 92%
    06:00 +18°C° 0 mm 3 m/s 745 mmHg 87%
    07:00 +19°C° 0 mm 3 m/s 745 mmHg 82%
    08:00 +21°C° 0 mm 3 m/s 745 mmHg 77%
    09:00 +22°C° 0.4 mm 3 m/s 745 mmHg 75%
    10:00 +24°C° 0.4 mm 3 m/s 745 mmHg 72%
    11:00 +25°C° 0.4 mm 2 m/s 745 mmHg 70%
    12:00 +25°C° 1.1 mm 3 m/s 745 mmHg 69%
    13:00 +26°C° 1.1 mm 4 m/s 744 mmHg 69%
    14:00 +27°C° 1.1 mm 5 m/s 744 mmHg 69%
    15:00 +27°C° 0.4 mm 5 m/s 744 mmHg 65%
    16:00 +27°C° 0.4 mm 5 m/s 744 mmHg 62%
    17:00 +27°C° 0.4 mm 5 m/s 743 mmHg 59%
    18:00 +25°C° 0 mm 5 m/s 743 mmHg 63%
    19:00 +23°C° 0 mm 5 m/s 743 mmHg 67%
    20:00 +21°C° 0 mm 4 m/s 743 mmHg 72%
    21:00 +21°C° 0 mm 4 m/s 744 mmHg 73%
    22:00 +20°C° 0 mm 5 m/s 744 mmHg 74%
    23:00 +20°C° 0 mm 5 m/s 744 mmHg 75%

    29 Maio, Quarta-feira

    Tempo Temperatura Precipitação Vento Pressão Humidade
    00:00 +19°C° 0 mm 4 m/s 744 mmHg 77%
    01:00 +19°C° 0 mm 4 m/s 744 mmHg 79%
    02:00 +18°C° 0 mm 4 m/s 744 mmHg 81%
    03:00 +18°C° 0 mm 4 m/s 744 mmHg 83%
    04:00 +18°C° 0 mm 4 m/s 744 mmHg 84%
    05:00 +17°C° 0 mm 5 m/s 744 mmHg 86%
    06:00 +19°C° 0 mm 5 m/s 744 mmHg 78%
    07:00 +20°C° 0 mm 5 m/s 744 mmHg 71%
    08:00 +21°C° 0 mm 5 m/s 744 mmHg 64%
    09:00 +22°C° 0 mm 6 m/s 744 mmHg 62%
    10:00 +24°C° 0 mm 6 m/s 744 mmHg 60%
    11:00 +26°C° 0 mm 6 m/s 744 mmHg 58%
    12:00 +27°C° 0 mm 6 m/s 744 mmHg 57%
    13:00 +28°C° 0 mm 6 m/s 744 mmHg 55%
    14:00 +29°C° 0 mm 6 m/s 743 mmHg 54%
    15:00 +28°C° 0.3 mm 6 m/s 743 mmHg 58%
    16:00 +28°C° 0.3 mm 5 m/s 743 mmHg 63%
    17:00 +27°C° 0.3 mm 5 m/s 743 mmHg 67%
    18:00 +26°C° 1.1 mm 4 m/s 743 mmHg 73%
    19:00 +23°C° 1.1 mm 4 m/s 743 mmHg 78%
    20:00 +21°C° 1.1 mm 3 m/s 744 mmHg 84%
    21:00 +20°C° 0.3 mm 3 m/s 744 mmHg 87%
    22:00 +20°C° 0.3 mm 3 m/s 744 mmHg 89%
    23:00 +19°C° 0.3 mm 3 m/s 744 mmHg 92%

    30 Maio, Quinta-feira

    Tempo Temperatura Precipitação Vento Pressão Humidade
    00:00 +18°C° 0 mm 2 m/s 744 mmHg 93%
    01:00 +18°C° 0 mm 2 m/s 744 mmHg 94%
    02:00 +17°C° 0 mm 2 m/s 744 mmHg 96%
    03:00 +17°C° 0.9 mm 2 m/s 744 mmHg 96%
    04:00 +17°C° 0.9 mm 2 m/s 744 mmHg 96%
    05:00 +18°C° 0.9 mm 1 m/s 745 mmHg 96%
    06:00 +18°C° 0 mm 2 m/s 745 mmHg 93%
    07:00 +19°C° 0 mm 3 m/s 746 mmHg 89%
    08:00 +21°C° 0 mm 4 m/s 746 mmHg 85%
    09:00 +20°C° 0.1 mm 4 m/s 747 mmHg 84%
    10:00 +19°C° 0.1 mm 4 m/s 747 mmHg 82%
    11:00 +19°C° 0.1 mm 4 m/s 747 mmHg 81%
    12:00 +19°C° 0 mm 4 m/s 747 mmHg 78%
    13:00 +20°C° 0 mm 4 m/s 748 mmHg 75%
    14:00 +20°C° 0 mm 4 m/s 748 mmHg 73%
    15:00 +21°C° 0 mm 4 m/s 748 mmHg 72%
    16:00 +21°C° 0 mm 4 m/s 748 mmHg 72%
    17:00 +21°C° 0 mm 3 m/s 748 mmHg 72%
    18:00 +20°C° 0 mm 3 m/s 748 mmHg 78%
    19:00 +19°C° 0 mm 2 m/s 748 mmHg 83%
    20:00 +18°C° 0 mm 2 m/s 748 mmHg 89%
    21:00 +17°C° 0 mm 2 m/s 748 mmHg 91%
    22:00 +16°C° 0 mm 2 m/s 748 mmHg 93%
    23:00 +15°C° 0 mm 2 m/s 748 mmHg 95%
    Mostrar mais